Location: Sungai Buloh
(3.1000°N, 113.0000°E)
Time: 17:03:43
(UTC+00:00)

Cosmos 1943 Rocket - Pass Details

Date: 12 January 2026
Orbit: 811 x 842 km, 71.0° (Epoch: 11 February)

Event Time Altitude Azimuth Distance (km) Brightness Sun altitude
Rises 21:17:08 0° 194° (SSW) 3,356 5.4 -19.6°
Reaches altitude 10° 21:19:35 10° 193° (SSW) 2,418 4.7 -19.0°
Maximum altitude 21:25:07 83° 105° (ESE) 827 2.2 -17.7°
Drops below altitude 10° 21:30:36 10° 18° (NNE) 2,393 4.5 -16.5°
Sets 21:33:00 0° 17° (NNE) 3,320 5.3 -15.9°
